Location: Laterina
(43.5167°N, 11.7167°E)
Time: 15:25:29
(UTC+00:00)

ARGOS - Pass Details

Date: 24 September 2020
Orbit: 821 x 834 km, 98.4° (Epoch: 25 October)

Event Time Altitude Azimuth Distance (km) Brightness Sun altitude
Exits shadow 19:01:27 - 181° (S) 3,277 6.1 -21.3°
Reaches altitude 10° 19:03:42 10° 187° (S) 2,412 5.4 -21.7°
Maximum altitude 19:08:51 48° 261° (W) 1,070 4.0 -22.6°
Drops below altitude 10° 19:14:03 10° 335° (NNW) 2,436 6.2 -23.4°
Sets 19:16:31 0° 341° (NNW) 3,376 6.9 -23.9°
